Location: Harwich
(41.7160°N, 69.9939°W)
Time: 17:34:58
(UTC+01:00)

Vanguard 3 - Visible Passes

Search period start: 29 January 2023 00:00
Search period end: 08 February 2023 00:00
Orbit: 509 x 3252 km, 33.4° (Epoch: 29 January)

Date Brightness Start Highest point End Pass type
(mag) Time Alt. Az. Time Alt. Az. Time Alt. Az.
29 Jan 9.7 01:16:41 10° SW 01:27:31 45° SSE 01:31:28 40° ESE visible
29 Jan 10.0 03:27:29 10° WSW 03:35:56 46° SW 03:35:56 46° SW visible
29 Jan11.306:19:47ESE06:19:47ESE05:40:23Wvisible
29 Jan 10.9 08:24:16 19° SSE 08:24:16 19° SSE 08:27:55 10° SSE visible
29 Jan 11.0 10:28:44 11° SW 10:28:44 11° SW 10:30:07 10° SW visible
30 Jan 9.9 00:03:14 10° SSW 00:11:47 30° SE 00:20:26 18° E visible
30 Jan 9.6 02:12:21 10° WSW 02:24:27 58° SSE 02:24:53 58° SSE visible
30 Jan 10.6 04:24:18 10° W 04:29:20 28° WSW 04:29:20 28° WSW visible
30 Jan 11.0 09:17:52 16° SSW 09:17:52 16° SSW 09:21:16 10° S visible
31 Jan 9.6 00:57:58 10° SW 01:07:57 46° SSE 01:13:48 34° ESE visible
31 Jan 9.8 03:08:39 10° WSW 03:18:15 54° SW 03:18:15 54° SW visible
31 Jan 11.1 05:21:28 10° W 05:22:42 14° W 05:22:42 14° W visible
31 Jan 11.2 08:06:58 12° SSE 08:06:58 12° SSE 08:07:59 10° SSE visible
31 Jan 9.8 23:44:29 10° SSW 23:52:21 31° SE 00:02:42 14° E visible
01 Feb 9.5 01:53:39 10° WSW 02:04:50 58° SSE 02:07:09 54° SE visible
01 Feb 10.3 04:05:22 10° W 04:11:36 35° WSW 04:11:36 35° WSW visible
01 Feb11.606:56:03SE06:56:03SE06:16:02Wvisible
01 Feb 11.2 09:00:31 11° S 09:00:31 11° S 09:00:50 10° S visible
02 Feb 9.5 00:39:20 10° SW 00:48:30 47° SSE 00:56:01 28° ESE visible
02 Feb 9.6 02:49:54 10° WSW 03:00:28 60° SSW 03:00:28 60° SSW visible
02 Feb 10.9 05:02:25 10° W 05:04:54 18° W 05:04:54 18° W visible
02 Feb 9.6 23:25:49 10° SSW 23:33:02 32° SE 23:44:25 10° E visible
03 Feb 9.4 01:35:03 10° WSW 01:45:19 58° SSE 01:49:19 48° ESE visible
03 Feb 10.1 03:46:32 10° W 03:53:45 41° WSW 03:53:45 41° WSW visible
04 Feb 9.3 00:20:47 10° SW 00:29:10 47° SSE 00:38:08 22° E visible
04 Feb 9.4 02:31:15 10° WSW 02:42:35 62° S 02:42:35 62° S visible
04 Feb 10.7 04:43:29 10° W 04:47:01 22° W 04:47:01 22° W visible
05 Feb 9.3 01:16:31 10° WSW 01:25:54 58° S 01:31:24 40° ESE visible
05 Feb 9.9 03:27:47 10° W 03:35:51 46° SW 03:35:51 46° SW visible
06 Feb 9.2 00:02:19 10° SW 00:09:56 47° SSE 00:20:14 17° E visible
06 Feb 9.4 02:12:40 10° WSW 02:23:06 60° S 02:24:40 57° SSE visible
06 Feb 10.5 04:24:40 10° W 04:29:07 26° WSW 04:29:07 26° WSW visible
07 Feb 9.1 00:58:02 10° WSW 01:06:37 56° S 01:13:29 32° ESE visible
07 Feb 9.7 03:09:07 10° W 03:17:56 50° SW 03:17:56 50° SW visible
07 Feb 11.1 05:22:10 10° W 05:22:22 11° W 05:22:22 11° W visible
